Big Lake, AK

11:02 PM AKST on February 08, 2016 (GMT -0900)
Wasilla

Weather History for PAWS - October, 2013

Change the Weather History Date:

Tuesday, October 1, 2013

  Actual Average Record
Temperature  
Mean Temperature 39 °F -  
Max Temperature 48 °F 52 °F 64 °F (2003)
Min Temperature 30 °F 34 °F 21 °F (1981)
Degree Days  
Heating Degree Days 26    
Moisture  
Dew Point 30 °F    
Average Humidity 60    
Maximum Humidity 86    
Minimum Humidity 46    
Precipitation  
Precipitation 0.00 in - - ()
Sea Level Pressure  
Sea Level Pressure 29.75 in    
Wind  
Wind Speed 1 mph (East)    
Max Wind Speed 6 mph    
Max Gust Speed -    
Visibility 10 miles    
Events      
Averages and records for this station are not official NWS values.
T = Trace of Precipitation, MM = Missing Value Source: NWS Daily Summary

Daily Weather History Graph

Daily Weather History Graph

Search for Another Location

Airport or City:

Trip Planner

Search our weather history database for the weather conditions in past years. The results will help you decide how hot, cold, wet, or windy it might be!

Date:

Astronomy

Oct. 01, 2013 Rise Set
Actual Time 8:06 AM AKDT 7:27 PM AKDT
Civil Twilight 7:22 AM AKDT 8:11 PM AKDT
Nautical Twilight 6:31 AM AKDT 9:02 PM AKDT
Astronomical Twilight 5:36 AM AKDT 9:56 PM AKDT
Moon 4:04 AM AKDT (10/1) 6:12 PM AKDT (10/1)
Length of Visible Light 12h 48m
Length of Day
11h 21m
Waning Crescent, 11% of the Moon is Illuminated
Oct 1
Waning Crescent
Oct 4
New
Oct 11
First Quarter
Oct 18
Full
Oct 26
Last Quarter

Hourly Weather History & Observations

Time (AKDT) Temp. Windchill Dew Point Humidity Pressure Visibility Wind Dir Wind Speed Gust Speed Precip Events Conditions
8:36 AM 30.2 °F - 24.8 °F 80% 29.70 in 10.0 mi Calm Calm - N/A   Clear
8:56 AM 30.2 °F - 26.6 °F 86% 29.70 in 10.0 mi Calm Calm - N/A   Clear
9:16 AM 30.2 °F - 26.6 °F 86% 29.71 in 10.0 mi Calm Calm - N/A   Clear
9:36 AM 32.0 °F - 26.6 °F 80% 29.71 in 10.0 mi Calm Calm - N/A   Partly Cloudy
9:56 AM 33.8 °F - 28.4 °F 81% 29.71 in 10.0 mi Calm Calm - N/A   Mostly Cloudy
10:16 AM 37.4 °F - 30.2 °F 75% 29.72 in 10.0 mi Calm Calm - N/A   Overcast
10:36 AM 39.2 °F - 30.2 °F 70% 29.72 in 10.0 mi Calm Calm - N/A   Overcast
10:56 AM 41.0 °F - 28.4 °F 61% 29.72 in 10.0 mi Calm Calm - N/A   Mostly Cloudy
11:16 AM 42.8 °F - 28.4 °F 57% 29.73 in 10.0 mi Calm Calm - N/A   Mostly Cloudy
11:36 AM 42.8 °F - 30.2 °F 61% 29.73 in 10.0 mi Calm Calm - N/A   Overcast
11:56 AM 42.8 °F - 28.4 °F 57% 29.73 in 10.0 mi Calm Calm - N/A   Overcast
12:16 PM 44.6 °F - 30.2 °F 57% 29.74 in 10.0 mi Calm Calm - N/A   Overcast
12:36 PM 44.6 °F 43.1 °F 28.4 °F 53% 29.74 in 10.0 mi ESE 3.5 mph - N/A   Scattered Clouds
12:56 PM 46.4 °F - 30.2 °F 53% 29.74 in 10.0 mi Calm Calm - N/A   Clear
1:16 PM 46.4 °F - 30.2 °F 53% 29.74 in 10.0 mi Calm Calm - N/A   Clear
1:36 PM 46.4 °F 45.2 °F 30.2 °F 53% 29.74 in 10.0 mi East 3.5 mph - N/A   Clear
1:56 PM 46.4 °F - 30.2 °F 53% 29.74 in 10.0 mi Calm Calm - N/A   Clear
2:16 PM 46.4 °F - 30.2 °F 53% 29.75 in 10.0 mi Calm Calm - N/A   Clear
2:36 PM 46.4 °F - 30.2 °F 53% 29.75 in 10.0 mi Calm Calm - N/A   Clear
2:56 PM 48.2 °F - 30.2 °F 50% 29.75 in 10.0 mi Calm Calm - N/A   Scattered Clouds
3:16 PM 48.2 °F - 30.2 °F 50% 29.74 in 10.0 mi Calm Calm - N/A   Partly Cloudy
3:36 PM 48.2 °F - 30.2 °F 50% 29.74 in 10.0 mi Calm Calm - N/A   Partly Cloudy
3:56 PM 48.2 °F - 28.4 °F 46% 29.74 in 10.0 mi Calm Calm - N/A   Clear
4:16 PM 48.2 °F - 30.2 °F 50% 29.74 in 10.0 mi Calm Calm - N/A   Partly Cloudy
4:36 PM 48.2 °F - 30.2 °F 50% 29.74 in 10.0 mi ESE 5.8 mph - N/A   Partly Cloudy
4:56 PM 48.2 °F - 30.2 °F 50% 29.74 in 10.0 mi Calm Calm - N/A   Mostly Cloudy
5:16 PM 48.2 °F - 30.2 °F 50% 29.74 in 10.0 mi SSE 3.5 mph - N/A   Overcast
5:36 PM 48.2 °F - 30.2 °F 50% 29.75 in 10.0 mi SE 4.6 mph - N/A   Overcast
5:56 PM 46.4 °F 44.3 °F 30.2 °F 53% 29.75 in 10.0 mi SSE 4.6 mph - N/A   Overcast
6:16 PM 46.4 °F 45.2 °F 30.2 °F 53% 29.75 in 10.0 mi SE 3.5 mph - N/A   Overcast
6:36 PM 46.4 °F 45.2 °F 30.2 °F 53% 29.75 in 10.0 mi SE 3.5 mph - N/A   Overcast
6:56 PM 44.6 °F - 30.2 °F 57% 29.75 in 10.0 mi Calm Calm - N/A   Overcast
7:16 PM 44.6 °F - 28.4 °F 53% 29.76 in 10.0 mi Calm Calm - N/A   Overcast
7:36 PM 44.6 °F - 28.4 °F 53% 29.76 in 10.0 mi Calm Calm - N/A   Overcast
7:56 PM 44.6 °F - 28.4 °F 53% 29.77 in 10.0 mi Calm Calm - N/A   Overcast
8:16 PM 44.6 °F - 30.2 °F 57% 29.77 in 10.0 mi Calm Calm - N/A   Overcast
8:36 PM 44.6 °F - 30.2 °F 57% 29.77 in 10.0 mi Calm Calm - N/A   Overcast
8:56 PM 44.6 °F - 30.2 °F 57% 29.78 in 10.0 mi Calm Calm - N/A   Overcast
9:16 PM 44.6 °F 43.1 °F 30.2 °F 57% 29.78 in 10.0 mi ENE 3.5 mph - N/A   Overcast
9:36 PM 42.8 °F 40.1 °F 32.0 °F 66% 29.78 in 10.0 mi NE 4.6 mph - N/A   Overcast
9:56 PM 42.8 °F 41.1 °F 30.2 °F 61% 29.78 in 10.0 mi ENE 3.5 mph - N/A   Overcast
10:16 PM 42.8 °F - 32.0 °F 66% 29.78 in 10.0 mi Calm Calm - N/A   Overcast
10:36 PM 41.0 °F 39.0 °F 32.0 °F 70% 29.78 in 10.0 mi ENE 3.5 mph - N/A   Overcast
10:56 PM 41.0 °F - 32.0 °F 70% 29.78 in 10.0 mi Calm Calm - N/A   Overcast
11:16 PM 42.8 °F 41.1 °F 33.8 °F 70% 29.78 in 10.0 mi ENE 3.5 mph - N/A   Overcast
11:36 PM 41.0 °F - 33.8 °F 76% 29.79 in 10.0 mi Calm Calm - N/A   Overcast
11:56 PM 42.8 °F 41.1 °F 32.0 °F 66% 29.79 in 10.0 mi ENE 3.5 mph - N/A   Overcast